Time,TemperatureF,DewpointF,PressureIn,WindDirection,WindDirectionDegrees,WindSpeedMPH,WindSpeedGustMPH,Humidity,HourlyPrecipIn,Conditions,Clouds,dailyrainin,SoftwareType,DateUTC
2013-01-14 00:00:00,1.0,-3.0,-100.00,NW,307,0.0,0.0,80,-99.99,,,-99.99,,2013-01-14 07:00:00,
2013-01-14 00:33:00,1.0,-3.0,-100.00,NW,307,0.0,0.0,80,-99.99,,,-99.99,,2013-01-14 07:33:00,
2013-01-14 00:43:00,1.0,-3.0,-100.00,NW,307,0.0,0.0,80,-99.99,,,-99.99,,2013-01-14 07:43:00,
2013-01-14 00:52:00,1.0,-3.0,-100.00,NW,307,0.0,0.0,80,-99.99,,,-99.99,,2013-01-14 07:52:00,
2013-01-14 01:00:00,2.0,-3.0,-100.00,NW,308,0.0,0.0,80,-99.99,,,-99.99,,2013-01-14 08:00:00,
2013-01-14 01:33:00,2.0,-3.0,-100.00,NW,308,0.0,0.0,80,-99.99,,,-99.99,,2013-01-14 08:33:00,
2013-01-14 01:43:00,2.0,-3.0,-100.00,NW,308,0.0,0.0,80,-99.99,,,-99.99,,2013-01-14 08:43:00,
2013-01-14 01:53:00,2.0,-3.0,-100.00,NW,308,0.0,0.0,80,-99.99,,,-99.99,,2013-01-14 08:53:00,
2013-01-14 02:00:00,3.0,-2.0,-100.00,NW,314,0.0,0.0,80,-99.99,,,-99.99,,2013-01-14 09:00:00,
2013-01-14 02:34:00,3.0,-2.0,-100.00,NW,314,0.0,0.0,80,-99.99,,,-99.99,,2013-01-14 09:34:00,
2013-01-14 02:43:00,3.0,-2.0,-100.00,NW,314,0.0,0.0,80,-99.99,,,-99.99,,2013-01-14 09:43:00,
2013-01-14 02:53:00,3.0,-2.0,-100.00,NW,314,0.0,0.0,80,-99.99,,,-99.99,,2013-01-14 09:53:00,
2013-01-14 03:00:00,3.0,-2.0,-100.00,NW,312,0.0,0.0,81,-99.99,,,-99.99,,2013-01-14 10:00:00,
2013-01-14 03:33:00,3.0,-2.0,-100.00,NW,312,0.0,0.0,81,-99.99,,,-99.99,,2013-01-14 10:33:00,
2013-01-14 03:43:00,3.0,-2.0,-100.00,NW,312,0.0,0.0,81,-99.99,,,-99.99,,2013-01-14 10:43:00,
2013-01-14 03:52:00,3.0,-2.0,-100.00,NW,312,0.0,0.0,81,-99.99,,,-99.99,,2013-01-14 10:52:00,
2013-01-14 04:00:00,3.0,-1.0,-100.00,NW,305,0.0,0.0,82,-99.99,,,-99.99,,2013-01-14 11:00:00,
2013-01-14 04:33:00,3.0,-1.0,-100.00,NW,305,0.0,0.0,82,-99.99,,,-99.99,,2013-01-14 11:33:00,
2013-01-14 04:43:00,3.0,-1.0,-100.00,NW,305,0.0,0.0,82,-99.99,,,-99.99,,2013-01-14 11:43:00,
2013-01-14 04:53:00,3.0,-1.0,-100.00,NW,305,0.0,0.0,82,-99.99,,,-99.99,,2013-01-14 11:53:00,
2013-01-14 05:00:00,5.0,0.0,-100.00,WNW,303,0.0,0.0,82,-99.99,,,-99.99,,2013-01-14 12:00:00,
2013-01-14 05:33:00,5.0,0.0,-100.00,WNW,303,0.0,0.0,82,-99.99,,,-99.99,,2013-01-14 12:33:00,
2013-01-14 05:43:00,5.0,0.0,-100.00,WNW,303,0.0,0.0,82,-99.99,,,-99.99,,2013-01-14 12:43:00,
2013-01-14 05:53:00,5.0,0.0,-100.00,WNW,303,0.0,0.0,82,-99.99,,,-99.99,,2013-01-14 12:53:00,
2013-01-14 06:00:00,5.0,1.0,-100.00,NW,323,0.0,0.0,82,-99.99,,,-99.99,,2013-01-14 13:00:00,
2013-01-14 06:33:00,5.0,1.0,-100.00,NW,323,0.0,0.0,82,-99.99,,,-99.99,,2013-01-14 13:33:00,
2013-01-14 06:43:00,5.0,1.0,-100.00,NW,323,0.0,0.0,82,-99.99,,,-99.99,,2013-01-14 13:43:00,
2013-01-14 06:53:00,5.0,1.0,-100.00,NW,323,0.0,0.0,82,-99.99,,,-99.99,,2013-01-14 13:53:00,
2013-01-14 07:00:00,6.0,2.0,-100.00,NW,320,0.0,0.0,83,-99.99,,,-99.99,,2013-01-14 14:00:00,
2013-01-14 07:33:00,6.0,2.0,-100.00,NW,320,0.0,0.0,83,-99.99,,,-99.99,,2013-01-14 14:33:00,
2013-01-14 07:43:00,6.0,2.0,-100.00,NW,320,0.0,0.0,83,-99.99,,,-99.99,,2013-01-14 14:43:00,
2013-01-14 07:53:00,6.0,2.0,-100.00,NW,320,0.0,0.0,83,-99.99,,,-99.99,,2013-01-14 14:53:00,
2013-01-14 08:00:00,6.0,3.0,-100.00,NW,316,0.0,0.0,83,-99.99,,,-99.99,,2013-01-14 15:00:00,
2013-01-14 08:33:00,6.0,3.0,-100.00,NW,316,0.0,0.0,83,-99.99,,,-99.99,,2013-01-14 15:33:00,
2013-01-14 08:43:00,6.0,3.0,-100.00,NW,316,0.0,0.0,83,-99.99,,,-99.99,,2013-01-14 15:43:00,
2013-01-14 08:53:00,6.0,3.0,-100.00,NW,316,0.0,0.0,83,-99.99,,,-99.99,,2013-01-14 15:53:00,
2013-01-14 09:00:00,6.0,2.0,-100.00,WNW,301,0.0,0.0,83,-99.99,,,-99.99,,2013-01-14 16:00:00,
2013-01-14 09:33:00,6.0,2.0,-100.00,WNW,301,0.0,0.0,83,-99.99,,,-99.99,,2013-01-14 16:33:00,
2013-01-14 09:43:00,6.0,2.0,-100.00,WNW,301,0.0,0.0,83,-99.99,,,-99.99,,2013-01-14 16:43:00,
2013-01-14 09:53:00,6.0,2.0,-100.00,WNW,301,0.0,0.0,83,-99.99,,,-99.99,,2013-01-14 16:53:00,
2013-01-14 10:00:00,7.0,3.0,-100.00,West,278,0.0,0.0,83,-99.99,,,-99.99,,2013-01-14 17:00:00,
2013-01-14 10:33:00,7.0,3.0,-100.00,West,278,0.0,0.0,83,-99.99,,,-99.99,,2013-01-14 17:33:00,
2013-01-14 10:43:00,7.0,3.0,-100.00,West,278,0.0,0.0,83,-99.99,,,-99.99,,2013-01-14 17:43:00,
2013-01-14 10:53:00,7.0,3.0,-100.00,West,278,0.0,0.0,83,-99.99,,,-99.99,,2013-01-14 17:53:00,
2013-01-14 11:00:00,11.0,7.0,-100.00,WSW,244,0.0,0.0,84,-99.99,,,-99.99,,2013-01-14 18:00:00,
2013-01-14 11:33:00,11.0,7.0,-100.00,WSW,244,0.0,0.0,84,-99.99,,,-99.99,,2013-01-14 18:33:00,
2013-01-14 11:43:00,11.0,7.0,-100.00,WSW,244,0.0,0.0,84,-99.99,,,-99.99,,2013-01-14 18:43:00,
2013-01-14 11:53:00,11.0,7.0,-100.00,WSW,244,0.0,0.0,84,-99.99,,,-99.99,,2013-01-14 18:53:00,
2013-01-14 12:00:00,15.0,13.0,-100.00,South,184,0.0,0.0,88,-99.99,,,-99.99,,2013-01-14 19:00:00,
2013-01-14 12:33:00,15.0,13.0,-100.00,South,184,0.0,0.0,88,-99.99,,,-99.99,,2013-01-14 19:33:00,
2013-01-14 12:43:00,15.0,13.0,-100.00,South,184,0.0,0.0,88,-99.99,,,-99.99,,2013-01-14 19:43:00,
2013-01-14 12:53:00,15.0,13.0,-100.00,South,184,0.0,0.0,88,-99.99,,,-99.99,,2013-01-14 19:53:00,
2013-01-14 13:00:00,15.0,11.0,-100.00,SW,220,0.0,0.0,84,-99.99,,,-99.99,,2013-01-14 20:00:00,
2013-01-14 13:33:00,15.0,11.0,-100.00,SW,220,0.0,0.0,84,-99.99,,,-99.99,,2013-01-14 20:33:00,
2013-01-14 13:43:00,15.0,11.0,-100.00,SW,220,0.0,0.0,84,-99.99,,,-99.99,,2013-01-14 20:43:00,
2013-01-14 13:53:00,15.0,11.0,-100.00,SW,220,0.0,0.0,84,-99.99,,,-99.99,,2013-01-14 20:53:00,
2013-01-14 14:00:00,9.0,5.0,-100.00,SW,227,0.0,0.0,84,-99.99,,,-99.99,,2013-01-14 21:00:00,
2013-01-14 14:33:00,9.0,5.0,-100.00,SW,227,0.0,0.0,84,-99.99,,,-99.99,,2013-01-14 21:33:00,
2013-01-14 14:43:00,9.0,5.0,-100.00,SW,227,0.0,0.0,84,-99.99,,,-99.99,,2013-01-14 21:43:00,
2013-01-14 14:53:00,9.0,5.0,-100.00,SW,227,0.0,0.0,84,-99.99,,,-99.99,,2013-01-14 21:53:00,
2013-01-14 15:00:00,11.0,8.0,-100.00,SSW,205,0.0,0.0,86,-99.99,,,-99.99,,2013-01-14 22:00:00,
2013-01-14 15:33:00,11.0,8.0,-100.00,SSW,205,0.0,0.0,86,-99.99,,,-99.99,,2013-01-14 22:33:00,
2013-01-14 15:43:00,11.0,8.0,-100.00,SSW,205,0.0,0.0,86,-99.99,,,-99.99,,2013-01-14 22:43:00,
2013-01-14 15:52:00,11.0,8.0,-100.00,SSW,205,0.0,0.0,86,-99.99,,,-99.99,,2013-01-14 22:52:00,
2013-01-14 16:00:00,12.0,8.0,-100.00,ESE,106,0.0,0.0,83,-99.99,,,-99.99,,2013-01-14 23:00:00,
2013-01-14 16:33:00,12.0,8.0,-100.00,ESE,106,0.0,0.0,83,-99.99,,,-99.99,,2013-01-14 23:33:00,
2013-01-14 16:43:00,12.0,8.0,-100.00,ESE,106,0.0,0.0,83,-99.99,,,-99.99,,2013-01-14 23:43:00,
2013-01-14 16:53:00,12.0,8.0,-100.00,ESE,106,0.0,0.0,83,-99.99,,,-99.99,,2013-01-14 23:53:00,
2013-01-14 17:00:00,10.0,6.0,-100.00,NE,34,0.0,0.0,83,-99.99,,,-99.99,,2013-01-15 00:00:00,
2013-01-14 17:33:00,10.0,6.0,-100.00,NE,34,0.0,0.0,83,-99.99,,,-99.99,,2013-01-15 00:33:00,
2013-01-14 17:43:00,10.0,6.0,-100.00,NE,34,0.0,0.0,83,-99.99,,,-99.99,,2013-01-15 00:43:00,
2013-01-14 17:53:00,10.0,6.0,-100.00,NE,34,0.0,0.0,83,-99.99,,,-99.99,,2013-01-15 00:53:00,
2013-01-14 18:00:00,15.0,13.0,-100.00,WNW,293,0.0,0.0,88,-99.99,,,-99.99,,2013-01-15 01:00:00,
2013-01-14 18:33:00,15.0,13.0,-100.00,WNW,293,0.0,0.0,88,-99.99,,,-99.99,,2013-01-15 01:33:00,
2013-01-14 18:43:00,15.0,13.0,-100.00,WNW,293,0.0,0.0,88,-99.99,,,-99.99,,2013-01-15 01:43:00,
2013-01-14 18:52:00,15.0,13.0,-100.00,WNW,293,0.0,0.0,88,-99.99,,,-99.99,,2013-01-15 01:52:00,
2013-01-14 19:00:00,16.0,13.0,-100.00,NW,305,0.0,0.0,87,-99.99,,,-99.99,,2013-01-15 02:00:00,
2013-01-14 19:33:00,16.0,13.0,-100.00,NW,305,0.0,0.0,87,-99.99,,,-99.99,,2013-01-15 02:33:00,
2013-01-14 19:42:00,16.0,13.0,-100.00,NW,305,0.0,0.0,87,-99.99,,,-99.99,,2013-01-15 02:42:00,
2013-01-14 19:53:00,16.0,13.0,-100.00,NW,305,0.0,0.0,87,-99.99,,,-99.99,,2013-01-15 02:53:00,
2013-01-14 20:00:00,16.0,13.0,-100.00,WNW,302,0.0,0.0,87,-99.99,,,-99.99,,2013-01-15 03:00:00,
2013-01-14 20:33:00,16.0,13.0,-100.00,WNW,302,0.0,0.0,87,-99.99,,,-99.99,,2013-01-15 03:33:00,
2013-01-14 20:42:00,16.0,13.0,-100.00,WNW,302,0.0,0.0,87,-99.99,,,-99.99,,2013-01-15 03:42:00,
2013-01-14 20:52:00,16.0,13.0,-100.00,WNW,302,0.0,0.0,87,-99.99,,,-99.99,,2013-01-15 03:52:00,
2013-01-14 21:00:00,15.0,12.0,-100.00,NW,310,0.0,0.0,87,-99.99,,,-99.99,,2013-01-15 04:00:00,
2013-01-14 21:33:00,15.0,12.0,-100.00,NW,310,0.0,0.0,87,-99.99,,,-99.99,,2013-01-15 04:33:00,
2013-01-14 21:42:00,15.0,12.0,-100.00,NW,310,0.0,0.0,87,-99.99,,,-99.99,,2013-01-15 04:42:00,
2013-01-14 21:52:00,15.0,12.0,-100.00,NW,310,0.0,0.0,87,-99.99,,,-99.99,,2013-01-15 04:52:00,
2013-01-14 22:00:00,16.0,13.0,-100.00,NW,312,0.0,0.0,88,-99.99,,,-99.99,,2013-01-15 05:00:00,
2013-01-14 22:33:00,16.0,13.0,-100.00,NW,312,0.0,0.0,88,-99.99,,,-99.99,,2013-01-15 05:33:00,
2013-01-14 22:42:00,16.0,13.0,-100.00,NW,312,0.0,0.0,88,-99.99,,,-99.99,,2013-01-15 05:42:00,
2013-01-14 22:52:00,16.0,13.0,-100.00,NW,312,0.0,0.0,88,-99.99,,,-99.99,,2013-01-15 05:52:00,
2013-01-14 23:00:00,16.0,13.0,-100.00,NW,305,2.0,13.0,88,-99.99,,,-99.99,,2013-01-15 06:00:00,
2013-01-14 23:33:00,16.0,13.0,-100.00,NW,305,2.0,13.0,88,-99.99,,,-99.99,,2013-01-15 06:33:00,
2013-01-14 23:43:00,16.0,13.0,-100.00,NW,305,2.0,13.0,88,-99.99,,,-99.99,,2013-01-15 06:43:00,
2013-01-14 23:52:00,16.0,13.0,-100.00,NW,305,2.0,13.0,88,-99.99,,,-99.99,,2013-01-15 06:52:00,